Location: Juzet
(42.9779°N, 0.7597°E)
Time: 08:36:17
(UTC+00:00)

CZ-4C R/B - Pass Details

Date: 14 July 2020
Orbit: 463 x 636 km, 98.0° (Epoch: 04 August)

Event Time Altitude Azimuth Distance (km) Brightness Sun altitude
Exits shadow 01:11:23 33° 97° (E) 897 4.4 -23.5°
Maximum altitude 01:12:04 36° 72° (ENE) 836 4.5 -23.5°
Drops below altitude 10° 01:15:30 10° 4° (N) 1,722 6.9 -23.3°
Sets 01:17:38 0° 356° (N) 2,586 7.9 -23.1°
